| time (UTC) | temp C | wind direction | speed KPH | gust KPH | rain 1hr cm | rain 24hr cm | rain mn cm | humidity % | barometer mb |
| 20260509052522 | 7 | 346 | 3.2 | 9.7 | 0.08 | 0.25 | 0.15 | 94 | 1010.6 |
| 20260509051633 | 8 | 86 | 1.6 | 3.2 | 0.10 | 0.23 | 0.13 | 93 | 1010.6 |
| 20260509050604 | 8 | 0.0 | 3.2 | 0.13 | 0.23 | 0.13 | 92 | 1010.5 | |
| 20260509045554 | 8 | 49 | 1.6 | 4.8 | 0.13 | 0.23 | 0.13 | 93 | 1010.7 |
| 20260509044603 | 8 | 37 | 1.6 | 6.4 | 0.15 | 0.23 | 0.13 | 93 | 1010.8 |
| 20260509043533 | 8 | 34 | 1.6 | 4.8 | 0.13 | 0.20 | 0.10 | 92 | 1010.8 |
| 20260509042523 | 7 | 5 | 1.6 | 6.4 | 0.10 | 0.18 | 0.05 | 92 | 1010.8 |
| 20260509041614 | 7 | 311 | 1.6 | 3.2 | 0.08 | 0.13 | 0.03 | 92 | 1010.7 |
| 20260509040625 | 8 | 124 | 1.6 | 4.8 | 0.05 | 0.13 | 0.00 | 91 | 1010.4 |
| 20260509035555 | 8 | 292 | 1.6 | 4.8 | 0.05 | 0.10 | 0.10 | 89 | 1010.6 |
| 20260509034546 | 8 | 312 | 3.2 | 6.4 | 0.03 | 0.08 | 0.08 | 87 | 1010.6 |
| 20260509033538 | 8 | 339 | 4.8 | 11.3 | 0.03 | 0.08 | 0.08 | 85 | 1010.8 |
| 20260509032525 | 8 | 311 | 4.8 | 6.4 | 0.03 | 0.08 | 0.08 | 84 | 1010.9 |
| 20260509031616 | 9 | 332 | 4.8 | 11.3 | 0.00 | 0.08 | 0.08 | 82 | 1010.8 |
| 20260509030626 | 9 | 324 | 8.0 | 14.5 | 0.00 | 0.05 | 0.05 | 80 | 1010.9 |
| 20260509025556 | 9 | 318 | 8.0 | 12.9 | 0.00 | 0.05 | 0.05 | 77 | 1011.0 |
| 20260509024546 | 10 | 302 | 6.4 | 16.1 | 0.00 | 0.05 | 0.05 | 76 | 1011.0 |
| 20260509023536 | 10 | 319 | 8.0 | 14.5 | 0.00 | 0.05 | 0.05 | 77 | 1010.8 |
| 20260509022529 | 10 | 323 | 9.7 | 17.7 | 0.00 | 0.08 | 0.05 | 77 | 1010.7 |
| 20260509021518 | 10 | 323 | 8.0 | 16.1 | 0.00 | 0.08 | 0.05 | 77 | 1010.7 |
| 20260509020607 | 10 | 325 | 4.8 | 11.3 | 0.00 | 0.13 | 0.05 | 77 | 1010.7 |
| 20260509015557 | 10 | 357 | 6.4 | 11.3 | 0.00 | 0.15 | 0.05 | 77 | 1010.5 |
| 20260509014556 | 10 | 340 | 9.7 | 19.3 | 0.00 | 0.18 | 0.05 | 76 | 1010.4 |
| 20260509013546 | 10 | 331 | 6.4 | 11.3 | 0.00 | 0.20 | 0.05 | 75 | 1010.2 |
| 20260509012527 | 10 | 350 | 4.8 | 9.7 | 0.00 | 0.23 | 0.05 | 75 | 1010.0 |
| 20260509011520 | 10 | 136 | 1.6 | 4.8 | 0.00 | 0.23 | 0.05 | 71 | 1009.8 |
| 20260509010608 | 11 | 342 | 3.2 | 9.7 | 0.00 | 0.23 | 0.05 | 69 | 1009.8 |
| 20260509005558 | 10 | 352 | 4.8 | 8.0 | 0.00 | 0.23 | 0.05 | 69 | 1009.7 |
| 20260509004611 | 10 | 305 | 6.4 | 9.7 | 0.00 | 0.23 | 0.05 | 71 | 1009.5 |
| 20260509003538 | 11 | 313 | 4.8 | 6.4 | 0.00 | 0.23 | 0.05 | 69 | 1009.5 |
| 20260509002528 | 11 | 311 | 3.2 | 8.0 | 0.00 | 0.23 | 0.05 | 69 | 1009.4 |
| 20260509001538 | 11 | 49 | 1.6 | 6.4 | 0.00 | 0.23 | 0.05 | 68 | 1009.4 |
| 20260509000629 | 11 | 323 | 6.4 | 14.5 | 0.00 | 0.23 | 0.05 | 68 | 1009.5 |
| 20260508235602 | 11 | 342 | 4.8 | 8.0 | 0.00 | 0.23 | 0.05 | 66 | 1009.4 |
| 20260508234549 | 11 | 345 | 3.2 | 8.0 | 0.00 | 0.23 | 0.05 | 66 | 1009.2 |
| 20260508233539 | 11 | 353 | 3.2 | 8.0 | 0.00 | 0.23 | 0.05 | 61 | 1008.9 |
| 20260508232529 | 12 | 15 | 6.4 | 11.3 | 0.00 | 0.23 | 0.05 | 58 | 1008.9 |
| 20260508231519 | 12 | 135 | 1.6 | 8.0 | 0.00 | 0.23 | 0.05 | 56 | 1008.8 |
| 20260508230613 | 12 | 115 | 1.6 | 3.2 | 0.00 | 0.23 | 0.05 | 55 | 1008.5 |
| 20260508225601 | 12 | 120 | 0.0 | 3.2 | 0.00 | 0.23 | 0.05 | 59 | 1008.6 |
| 20260508224550 | 12 | 0.0 | 1.6 | 0.00 | 0.23 | 0.05 | 57 | 1008.5 | |
| 20260508223540 | 13 | 0.0 | 1.6 | 0.00 | 0.23 | 0.05 | 55 | 1008.7 | |
| 20260508222533 | 13 | 249 | 1.6 | 9.7 | 0.00 | 0.23 | 0.05 | 48 | 1008.6 |
| 20260508221520 | 13 | 244 | 4.8 | 8.0 | 0.00 | 0.23 | 0.05 | 43 | 1008.7 |
| 20260508220611 | 13 | 250 | 3.2 | 8.0 | 0.00 | 0.23 | 0.05 | 43 | 1008.6 |
| 20260508215601 | 13 | 312 | 4.8 | 9.7 | 0.00 | 0.23 | 0.05 | 43 | 1008.8 |
| 20260508214554 | 13 | 256 | 6.4 | 12.9 | 0.00 | 0.23 | 0.05 | 42 | 1008.6 |
| 20260508213601 | 13 | 297 | 6.4 | 14.5 | 0.00 | 0.23 | 0.05 | 41 | 1008.5 |
| 20260508212531 | 13 | 278 | 9.7 | 16.1 | 0.00 | 0.23 | 0.05 | 44 | 1008.6 |
| 20260508211521 | 12 | 286 | 6.4 | 16.1 | 0.00 | 0.23 | 0.05 | 45 | 1008.7 |
| 20260508210632 | 12 | 283 | 11.3 | 27.4 | 0.00 | 0.23 | 0.05 | 43 | 1008.8 |
| 20260508205602 | 12 | 288 | 8.0 | 20.9 | 0.00 | 0.23 | 0.05 | 43 | 1008.8 |
| 20260508204552 | 13 | 303 | 11.3 | 20.9 | 0.00 | 0.23 | 0.05 | 43 | 1008.8 |
| 20260508203542 | 13 | 308 | 8.0 | 19.3 | 0.00 | 0.23 | 0.05 | 42 | 1008.9 |
| 20260508202532 | 13 | 291 | 20.9 | 33.8 | 0.00 | 0.23 | 0.05 | 41 | 1008.9 |
| 20260508201542 | 13 | 283 | 17.7 | 33.8 | 0.00 | 0.23 | 0.05 | 43 | 1009.1 |
| 20260508200633 | 13 | 293 | 17.7 | 37.0 | 0.00 | 0.23 | 0.05 | 44 | 1009.2 |
| 20260508195603 | 12 | 282 | 12.9 | 24.1 | 0.00 | 0.23 | 0.05 | 47 | 1009.4 |
| 20260508194553 | 12 | 293 | 11.3 | 20.9 | 0.00 | 0.23 | 0.05 | 47 | 1009.4 |
| 20260508193542 | 12 | 289 | 17.7 | 27.4 | 0.00 | 0.23 | 0.05 | 48 | 1009.7 |
| 20260508192532 | 12 | 317 | 11.3 | 29.0 | 0.00 | 0.23 | 0.05 | 48 | 1009.9 |
| 20260508191522 | 11 | 261 | 3.2 | 8.0 | 0.00 | 0.23 | 0.05 | 51 | 1009.8 |
| 20260508190614 | 11 | 300 | 8.0 | 17.7 | 0.00 | 0.23 | 0.05 | 52 | 1010.2 |
| 20260508185624 | 11 | 247 | 6.4 | 14.5 | 0.00 | 0.23 | 0.05 | 52 | 1010.1 |
| 20260508184554 | 11 | 320 | 4.8 | 12.9 | 0.00 | 0.23 | 0.05 | 56 | 1010.4 |
| 20260508183543 | 10 | 272 | 3.2 | 9.7 | 0.00 | 0.23 | 0.05 | 56 | 1010.5 |
| 20260508182533 | 10 | 297 | 4.8 | 11.3 | 0.00 | 0.23 | 0.05 | 57 | 1010.5 |
| 20260508181523 | 10 | 265 | 8.0 | 14.5 | 0.00 | 0.23 | 0.05 | 59 | 1010.5 |
| 20260508180615 | 10 | 288 | 8.0 | 14.5 | 0.00 | 0.23 | 0.05 | 58 | 1010.7 |
| 20260508175607 | 10 | 292 | 4.8 | 11.3 | 0.00 | 0.23 | 0.05 | 59 | 1010.6 |
| 20260508174555 | 10 | 292 | 8.0 | 17.7 | 0.00 | 0.23 | 0.05 | 58 | 1010.7 |
| 20260508173545 | 10 | 302 | 8.0 | 14.5 | 0.00 | 0.23 | 0.05 | 59 | 1010.8 |
| 20260508172554 | 9 | 293 | 8.0 | 14.5 | 0.00 | 0.23 | 0.05 | 60 | 1011.0 |
| 20260508171527 | 9 | 291 | 8.0 | 12.9 | 0.00 | 0.23 | 0.05 | 60 | 1011.0 |
| 20260508170616 | 10 | 245 | 3.2 | 8.0 | 0.03 | 0.23 | 0.05 | 62 | 1011.1 |
| 20260508165626 | 8 | 248 | 3.2 | 9.7 | 0.05 | 0.23 | 0.05 | 67 | 1011.2 |
| 20260508164556 | 8 | 257 | 3.2 | 8.0 | 0.05 | 0.23 | 0.05 | 66 | 1011.4 |
| 20260508163546 | 8 | 260 | 4.8 | 9.7 | 0.05 | 0.23 | 0.05 | 68 | 1011.4 |
| 20260508162536 | 7 | 302 | 3.2 | 4.8 | 0.05 | 0.23 | 0.05 | 74 | 1011.6 |
| 20260508161546 | 6 | 297 | 3.2 | 8.0 | 0.05 | 0.23 | 0.05 | 75 | 1011.7 |
| 20260508160516 | 7 | 268 | 6.4 | 11.3 | 0.00 | 0.20 | 0.03 | 71 | 1011.8 |
| 20260508155607 | 7 | 325 | 6.4 | 14.5 | 0.00 | 0.20 | 0.00 | 69 | 1011.5 |
| 20260508154557 | 8 | 315 | 8.0 | 16.1 | 0.00 | 0.20 | 0.00 | 63 | 1011.4 |
| 20260508153546 | 8 | 279 | 11.3 | 20.9 | 0.00 | 0.20 | 0.00 | 61 | 1011.1 |
| 20260508152557 | 8 | 280 | 14.5 | 27.4 | 0.00 | 0.20 | 0.00 | 60 | 1011.1 |
| 20260508151527 | 8 | 297 | 14.5 | 24.1 | 0.00 | 0.20 | 0.00 | 61 | 1011.0 |
| 20260508150517 | 8 | 301 | 16.1 | 25.7 | 0.00 | 0.20 | 0.00 | 62 | 1011.2 |
| 20260508145628 | 7 | 295 | 9.7 | 19.3 | 0.00 | 0.20 | 0.00 | 67 | 1011.1 |
| 20260508144618 | 7 | 274 | 9.7 | 22.5 | 0.00 | 0.20 | 0.00 | 69 | 1011.1 |
| 20260508143551 | 7 | 278 | 12.9 | 24.1 | 0.00 | 0.20 | 0.00 | 69 | 1010.9 |
| 20260508142541 | 7 | 284 | 6.4 | 16.1 | 0.00 | 0.18 | 0.00 | 71 | 1010.7 |
| 20260508141547 | 7 | 291 | 9.7 | 17.7 | 0.00 | 0.18 | 0.00 | 71 | 1010.6 |
| 20260508140518 | 7 | 298 | 6.4 | 17.7 | 0.00 | 0.18 | 0.00 | 72 | 1010.6 |
| 20260508135609 | 7 | 257 | 9.7 | 20.9 | 0.00 | 0.18 | 0.00 | 75 | 1010.8 |
| 20260508134559 | 6 | 288 | 6.4 | 22.5 | 0.00 | 0.18 | 0.00 | 77 | 1010.9 |
| 20260508133552 | 6 | 300 | 12.9 | 20.9 | 0.00 | 0.18 | 0.00 | 79 | 1010.9 |
| 20260508132720 | 6 | 305 | 9.7 | 17.7 | 0.00 | 0.18 | 0.00 | 82 | 1010.8 |
| 20260508131529 | 5 | 304 | 8.0 | 19.3 | 0.00 | 0.18 | 0.00 | 87 | 1010.7 |
| 20260508130539 | 5 | 336 | 11.3 | 22.5 | 0.00 | 0.18 | 0.00 | 97 | 1011.0 |
| 20260508125610 | 4 | 333 | 8.0 | 17.7 | 0.00 | 0.18 | 0.00 | 97 | 1010.8 |
| 20260508124600 | 3 | 330 | 6.4 | 12.9 | 0.00 | 0.18 | 0.00 | 96 | 1010.8 |
| 20260508123630 | 2 | 264 | 1.6 | 6.4 | 0.00 | 0.18 | 0.00 | 97 | 1010.8 |
| 20260508122540 | 2 | 330 | 3.2 | 9.7 | 0.00 | 0.18 | 0.00 | 97 | 1010.8 |
| 20260508121549 | 2 | 357 | 3.2 | 6.4 | 0.00 | 0.18 | 0.00 | 97 | 1010.9 |
| 20260508120520 | 2 | 282 | 1.6 | 6.4 | 0.00 | 0.18 | 0.00 | 97 | 1011.1 |
| 20260508115611 | 1 | 317 | 4.8 | 6.4 | 0.00 | 0.18 | 0.00 | 97 | 1011.1 |
| 20260508114621 | 1 | 347 | 4.8 | 8.0 | 0.00 | 0.18 | 0.00 | 97 | 1011.3 |
| 20260508113551 | 1 | 313 | 4.8 | 9.7 | 0.00 | 0.18 | 0.00 | 97 | 1011.4 |
| 20260508112541 | 1 | 312 | 6.4 | 9.7 | 0.00 | 0.18 | 0.00 | 97 | 1011.2 |
| 20260508111531 | 1 | 311 | 3.2 | 8.0 | 0.00 | 0.18 | 0.00 | 97 | 1011.1 |
| 20260508110521 | 1 | 285 | 1.6 | 6.4 | 0.00 | 0.18 | 0.00 | 96 | 1011.1 |
| 20260508105612 | 0 | 212 | 3.2 | 4.8 | 0.00 | 0.18 | 0.00 | 97 | 1011.0 |
| 20260508104622 | 0 | 328 | 1.6 | 3.2 | 0.00 | 0.18 | 0.00 | 97 | 1011.0 |
| 20260508103552 | 0 | 249 | 3.2 | 4.8 | 0.00 | 0.18 | 0.00 | 97 | 1011.1 |
| 20260508102542 | 0 | 263 | 4.8 | 8.0 | 0.00 | 0.18 | 0.00 | 97 | 1011.0 |
| 20260508101532 | 0 | 254 | 4.8 | 8.0 | 0.00 | 0.18 | 0.00 | 96 | 1010.9 |
| 20260508100522 | 0 | 245 | 3.2 | 6.4 | 0.00 | 0.18 | 0.00 | 96 | 1010.9 |
| 20260508095613 | 0 | 242 | 3.2 | 8.0 | 0.00 | 0.18 | 0.00 | 97 | 1010.9 |
| 20260508094603 | 0 | 223 | 3.2 | 6.4 | 0.00 | 0.18 | 0.00 | 97 | 1010.8 |
| 20260508093556 | 0 | 261 | 3.2 | 6.4 | 0.00 | 0.18 | 0.00 | 97 | 1010.9 |
| 20260508092543 | 0 | 227 | 3.2 | 6.4 | 0.00 | 0.18 | 0.00 | 97 | 1010.9 |
| 20260508091533 | 0 | 113 | 3.2 | 8.0 | 0.00 | 0.18 | 0.00 | 97 | 1010.9 |
| 20260508090523 | 0 | 161 | 3.2 | 6.4 | 0.00 | 0.18 | 0.00 | 97 | 1011.1 |
| 20260508085614 | 0 | 0.0 | 4.8 | 0.00 | 0.18 | 0.00 | 97 | 1011.2 | |
| 20260508084604 | 0 | 225 | 4.8 | 6.4 | 0.00 | 0.18 | 0.00 | 97 | 1011.0 |
| 20260508083557 | 0 | 76 | 1.6 | 6.4 | 0.00 | 0.18 | 0.00 | 96 | 1010.9 |
| 20260508082544 | 0 | 261 | 4.8 | 6.4 | 0.00 | 0.18 | 0.00 | 97 | 1011.1 |
| 20260508081534 | 0 | 155 | 1.6 | 6.4 | 0.00 | 0.18 | 0.00 | 97 | 1011.0 |
| 20260508080524 | 0 | 314 | 1.6 | 6.4 | 0.00 | 0.18 | 0.00 | 97 | 1010.8 |
| 20260508075615 | 0 | 193 | 1.6 | 6.4 | 0.00 | 0.18 | 0.00 | 97 | 1010.8 |
| 20260508074605 | 0 | 129 | 1.6 | 6.4 | 0.00 | 0.18 | 0.00 | 96 | 1010.8 |
| 20260508073555 | 0 | 182 | 4.8 | 9.7 | 0.00 | 0.18 | 0.00 | 96 | 1010.9 |
| 20260508072545 | 0 | 190 | 3.2 | 6.4 | 0.00 | 0.18 | 0.00 | 97 | 1010.9 |
| 20260508071535 | 0 | 174 | 4.8 | 6.4 | 0.00 | 0.18 | 0.00 | 97 | 1010.8 |
| 20260508070525 | 0 | 171 | 3.2 | 8.0 | 0.00 | 0.18 | 0.00 | 97 | 1010.7 |
| 20260508065636 | 1 | 150 | 0.0 | 4.8 | 0.00 | 0.18 | 0.00 | 96 | 1010.9 |
| 20260508064605 | 1 | 0.0 | 0.0 | 0.00 | 0.18 | 0.00 | 96 | 1010.7 | |
| 20260508063615 | 1 | 0.0 | 0.0 | 0.00 | 0.18 | 0.00 | 95 | 1010.9 | |
| 20260508062545 | 1 | 0.0 | 3.2 | 0.00 | 0.18 | 0.00 | 95 | 1011.0 | |
| 20260508061535 | 1 | 0.0 | 1.6 | 0.00 | 0.18 | 0.00 | 95 | 1011.2 | |
| 20260508060526 | 1 | 0.0 | 1.6 | 0.00 | 0.18 | 0.00 | 95 | 1011.1 | |
| 20260508055516 | 1 | 0.0 | 0.0 | 0.00 | 0.18 | 0.00 | 95 | 1011.0 | |
| 20260508054610 | 1 | 0.0 | 1.6 | 0.00 | 0.18 | 0.00 | 95 | 1010.9 | |
| 20260508053557 | 1 | 0.0 | 1.6 | 0.00 | 0.18 | 0.00 | 95 | 1011.0 |